Flag for U.S.A. Weather past 2 weeks in Fresno, California, U.S.A.

Now
67 °F

Partly cloudy.


Feels Like: 67 °F
Forecast: 67 / 90 °F
Wind: 3 mph from Northwest

Location: Fresno Air Terminal

Current Time: Sep 21, 2014 at 7:30:15 AM

Latest Report: Sep 21, 2014 at 6:53 AM


Visibility: 10 mi

Pressure: 29.91 "Hg

Humidity: 63%

Dew point: 54 °F

Location of FresnoLocation

Historic Weather in Fresno — Graph

°F

Fresno temperature yesterday

Maximum temperature yesterday: 93 °F (at 3:53 PM)
Minimum temperature yesterday: 68 °F (at 5:53 AM)
Average temperature yesterday: 82 °F

Past Weeks' High & Low Weather Summary

 TemperatureHumidityPressure
High103 °F (Sep 14, 2:53 PM)73% (Sep 19, 6:53 AM)29.95 "Hg (Sep 19, 6:53 AM)
Low63 °F (Sep 9, 5:53 AM)8% (Sep 6, 5:53 PM)29.66 "Hg (Sep 17, 5:53 PM)
Average83 °F35%29.80 "Hg
* Reported Sep 6 5:53 AM — Sep 21 5:53 AM, Fresno, Weather by CustomWeather, © 2014

Note: Actual official high and low records may vary slightly from our data, if they occured in-between our weather recording intervals... More about our weather records

Advertising

Fresno weather history for previous 24 hours

 ConditionsComfort  
Time TempWeatherWind HumidityBarometerVisibility
5:53 AM
Sep 21
68 °FPartly cloudy.8 mph61%29.89 "Hg10 mi
4:53 AM69 °FPassing clouds.5 mph61%29.86 "Hg10 mi
3:53 AM70 °FPassing clouds.8 mph59%29.85 "Hg10 mi
2:53 AM72 °FPassing clouds.8 mph55%29.84 "Hg10 mi
1:53 AM74 °FPassing clouds.10 mph52%29.84 "Hg10 mi
12:53 AM74 °FPassing clouds.6 mph53%29.85 "Hg10 mi
11:53 PM
Sep 20
75 °FPassing clouds.7 mph50%29.84 "Hg10 mi
10:53 PM80 °FPassing clouds.13 mph35%29.83 "Hg10 mi
9:53 PM82 °FPassing clouds.14 mph32%29.83 "Hg10 mi
8:53 PM84 °FPassing clouds.16 mph30%29.82 "Hg10 mi
7:53 PM86 °FPartly sunny.14 mph31%29.80 "Hg10 mi
6:53 PM89 °FScattered clouds.13 mph26%29.79 "Hg9 mi
5:53 PM91 °FHaze.10 mph26%29.78 "Hg6 mi
4:53 PM92 °FPassing clouds.7 mph26%29.79 "Hg7 mi
3:53 PM93 °FPassing clouds.10 mph26%29.80 "Hg9 mi
2:53 PM91 °FScattered clouds.8 mph26%29.82 "Hg10 mi
1:53 PM90 °FScattered clouds.8 mph27%29.84 "Hg10 mi
12:53 PM86 °FScattered clouds.No wind33%29.87 "Hg10 mi
11:53 AM84 °FBroken clouds.5 mph40%29.88 "Hg9 mi
10:53 AM82 °FPassing clouds.3 mph43%29.89 "Hg8 mi
Weather by CustomWeather, © 2014

See weather overviewHow to use our weather pages